[[{"header":{"parameterUnit":"m.s-1","parameterCategory":1,"la1":30.2991,"la2":30.254,"lo1":-89.0895,"lo2":-89.0444,"dy":0.0017,"dx":0.0017,"nx":28,"ny":28,"refTime":"2025-01-22T03:00:00:Z","depth":0,"parameterNumber":2,"parameterNumberName":"U-component_of_WINDS"},"data":[0,0,0,0,0,0,0,0,0,0,0,0,0,0,0,0,0,0,0,0,0,0,0,0,0,0,0,0,0,0,0,0,0,0,0,0,0,0,0,0,0,0,0,0,0,0,0,0,0,0,0,0,0,0,0,0,0,0,1.048,1.0479,0,1.043,1.043,1.0429,1.0373,1.0372,1.0371,1.037,1.0317,1.0316,1.0315,0,0,0,0,0,0,0,0,0,0,0,0,0,1.0524,1.0523,1.048,1.0479,1.0479,1.043,1.043,1.0429,1.0373,1.0372,1.0371,1.037,1.0317,1.0316,1.0315,0,0,0,0,0,0,0,0,0,0,0,0,0,1.0493,1.0523,1.048,1.0445,1.0441,1.0431,1.043,1.0429,1.0373,1.0372,1.0371,1.0369,1.0317,1.0316,1.0315,1.0334,0,0,1.0312,1.0312,0,0,0,0,0,0,0,0,1.0494,1.0491,1.0451,1.0447,1.0443,1.0406,1.0425,1.0397,1.0373,1.0399,1.037,1.0369,1.0347,1.0344,1.0337,1.0332,1.0329,1.0312,1.0311,1.0311,1.0311,0,0,0,0,0,0,0,1.0497,1.0493,1.046,1.045,1.0446,1.0431,1.0425,1.042,1.0381,1.0397,1.0392,1.0387,1.0345,1.0338,1.0335,1.0328,1.0312,1.0311,1.0311,1.031,1.0336,1.0338,0,0,0,0,0,0,1.0504,1.0495,1.0462,1.0459,1.0466,1.0431,1.0425,1.0419,1.0381,1.0373,1.0389,1.0385,1.034,1.0337,1.0333,1.0353,1.0311,1.031,1.031,1.0335,1.0337,1.0338,0,0,0,0,0,0,1.0506,1.0502,1.0464,1.0476,1.047,1.0432,1.0426,1.0419,1.0412,1.0374,1.0367,1.0389,1.0339,1.0335,1.0335,1.035,1.031,1.0309,1.0334,1.0336,1.0337,1.0393,0,0,0,0,0,0,1.0507,1.0503,1.051,1.0476,1.0469,1.0467,1.0427,1.0419,1.0411,1.0406,1.0373,1.0366,1.0338,1.0336,1.0334,1.0348,1.0308,1.0332,1.0335,1.0337,1.039,1.0397,1.0403,0,0,0,0,0,1.0509,1.0527,1.0511,1.0507,1.0478,1.0468,1.0463,1.0432,1.0413,1.0419,1.0395,1.0367,1.035,1.0337,1.0333,1.0348,1.0331,1.0334,1.0337,1.0387,1.0395,1.0403,0,0,0,0,0,0,1.0562,1.0522,1.0503,1.0511,1.0493,1.0458,1.0465,1.0442,1.0428,1.0424,1.0384,1.0377,1.0382,1.0365,1.0351,1.0365,1.0336,1.0339,1.0375,1.0383,1.039,1.0393,1.0307,0,0,0,0,0,1.0575,1.0571,1.0536,1.0546,1.0538,1.0504,1.0498,1.0475,1.0455,1.0447,1.0422,1.0403,1.0393,1.0387,1.0376,1.0387,1.0379,1.0396,1.0402,1.0408,1.041,1.0415,1.0422,1.0348,1.0348,1.0348,0,0,1.0601,1.0578,1.0578,1.0556,1.0539,1.0536,1.0497,1.0495,1.0492,1.0446,1.0445,1.0427,1.0402,1.0408,1.0409,1.0394,1.0429,1.0411,1.0416,1.0415,1.0419,1.0426,1.0432,1.035,1.0349,1.0349,0,0,1.0646,1.0629,1.0636,1.0621,1.0597,1.0574,1.0576,1.0545,1.0531,1.053,1.0496,1.0491,1.0474,1.0459,1.0449,1.049,1.0464,1.0487,1.0521,1.0526,1.0532,1.0537,1.0552,1.0558,1.049,1.049,1.049,0,1.0681,1.0675,1.0642,1.0642,1.0633,1.0594,1.06,1.0586,1.056,1.0555,1.0538,1.0518,1.0498,1.05,1.0511,1.0504,1.0504,1.049,1.0534,1.0539,1.0543,1.0556,1.0562,1.0493,1.0493,1.0492,1.0492,0,1.0719,1.0715,1.0724,1.07,1.0693,1.0696,1.0663,1.0659,1.0638,1.0617,1.0616,1.0592,1.0575,1.0574,1.0552,1.0573,1.0564,1.0542,1.0512,1.0554,1.0566,1.0571,1.0497,1.0496,1.0495,1.0495,0,0,1.0795,1.0755,1.0759,1.0748,1.072,1.0716,1.0717,1.0702,1.07,1.0683,1.0683,1.0671,1.065,1.0639,1.0615,1.062,1.0654,1.0597,1.0596,1.0608,1.0676,1.0693,1.0699,1.0637,1.0638,1.0639,1.0678,0,1.0835,1.0836,1.0807,1.0816,1.0812,1.0775,1.0776,1.0759,1.074,1.0733,1.0711,1.0703,1.0677,1.067,1.0673,1.065,1.0667,1.0646,1.0636,1.0636,1.0643,1.0705,1.0723,1.0761,1.0682,1.0683,1.0684,0,1.0882,1.0869,1.0878,1.085,1.0847,1.0849,1.0834,1.0828,1.0808,1.0793,1.0782,1.0755,1.0754,1.0727,1.0725,1.0712,1.0706,1.0694,1.0694,1.0692,1.0662,1.0704,1.0772,1.0778,1.0691,1.069,1.069,0,1.0936,1.0922,1.0925,1.0917,1.0885,1.0887,1.0873,1.0852,1.0845,1.0831,1.0826,1.0812,1.0804,1.0794,1.0764,1.0747,1.0766,1.0736,1.0753,1.0754,1.0758,1.0758,1.0826,1.0755,1.0755,1.0755,1.0755,0,1.0983,1.099,1.0949,1.0951,1.0958,1.0925,1.0932,1.0915,1.0896,1.0894,1.0861,1.0859,1.082,1.0814,1.0791,1.0793,1.079,1.0778,1.0771,1.078,1.0782,1.0775,1.0772,1.0757,1.0756,1.0756,1.0756,0,1.1045,1.1018,1.1019,1.0989,1.0982,1.0988,1.0962,1.0962,1.0942,1.0939,1.0937,1.0904,1.0895,1.0865,1.0848,1.0833,1.0842,1.083,1.0849,1.0845,1.0863,1.0862,1.0929,1.0936,1.0862,1.0863,1.0863,0,1.1077,1.1081,1.1052,1.1049,1.1037,1.1032,1.1025,1.0993,1.0988,1.0965,1.0969,1.0958,1.0947,1.0935,1.0909,1.0896,1.0883,1.0908,1.0881,1.089,1.0883,1.0883,1.0883,1.0913,1.0914,1.0915,1.0915,0,1.1136,1.1123,1.1115,1.1103,1.1096,1.1084,1.1071,1.107,1.1034,1.1029,1.1021,1.1013,1.0997,1.0986,1.0969,1.0954,1.0929,1.0924,1.0928,1.0936,1.0947,1.0941,1.0864,1.0923,1.0922,1.0921,1.0921,1.0921,1.1183,1.1186,1.1166,1.1158,1.1145,1.1134,1.1133,1.1113,1.1106,1.1091,1.1072,1.1066,1.1046,1.1021,1.1008,1.1003,1.0988,1.0993,1.0994,1.0996,1.1,1.0949,1.0999,1.0999,1.0999,1.0999,1.0999,0,1.124,1.1226,1.122,1.1202,1.1197,1.1175,1.1159,1.1155,1.1151,1.1135,1.1126,1.1116,1.1106,1.108,1.1067,1.1067,1.1055,1.1065,1.1064,1.1061,1.1013,1.1012,1.1075,1.1075,1.1075,1.1075,1.1075,1.1075,1.1269,1.1272,1.1257,1.1254,1.1239,1.1234,1.1227,1.1216,1.1203,1.1194,1.1186,1.117,1.1149,1.1135,1.1125,1.1117,1.1114,1.1127,1.1116,1.1072,1.1064,1.1058,1.1056,1.1127,1.1127,1.1164,1.1165,1.1165]},{"header":{"parameterUnit":"m.s-1","parameterCategory":1,"la1":30.2991,"la2":30.254,"lo1":-89.0895,"lo2":-89.0444,"dy":0.0017,"dx":0.0017,"nx":28,"ny":28,"refTime":"2025-01-22T03:00:00:Z","depth":0,"parameterNumber":3,"parameterNumberName":"V-component_of_WINDS"},"data":[0,0,0,0,0,0,0,0,0,0,0,0,0,0,0,0,0,0,0,0,0,0,0,0,0,0,0,0,0,0,0,0,0,0,0,0,0,0,0,0,0,0,0,0,0,0,0,0,0,0,0,0,0,0,0,0,0,0,-3.7933,-3.7935,0,-3.8049,-3.8051,-3.8052,-3.8016,-3.8014,-3.8012,-3.8009,-3.813,-3.8135,-3.814,0,0,0,0,0,0,0,0,0,0,0,0,0,-3.7684,-3.7688,-3.7933,-3.7935,-3.7936,-3.8049,-3.8051,-3.8052,-3.8017,-3.8014,-3.8011,-3.8008,-3.8128,-3.8134,-3.8141,0,0,0,0,0,0,0,0,0,0,0,0,0,-3.7795,-3.769,-3.7933,-3.7932,-3.7933,-3.8049,-3.8051,-3.8053,-3.8017,-3.8014,-3.801,-3.8007,-3.8126,-3.8134,-3.8142,-3.8266,0,0,-3.8167,-3.8171,0,0,0,0,0,0,0,0,-3.7789,-3.7804,-3.7931,-3.7932,-3.7934,-3.8015,-3.8007,-3.8124,-3.8018,-3.7986,-3.8009,-3.8005,-3.8095,-3.8105,-3.8135,-3.8272,-3.8277,-3.8168,-3.8173,-3.8176,-3.8179,0,0,0,0,0,0,0,-3.7781,-3.7799,-3.7979,-3.7933,-3.7934,-3.7927,-3.7938,-3.8029,-3.8059,-3.7988,-3.7986,-3.8,-3.8095,-3.8127,-3.8138,-3.8279,-3.8168,-3.8175,-3.818,-3.8183,-3.8525,-3.8529,0,0,0,0,0,0,-3.7772,-3.7793,-3.7975,-3.7983,-3.7851,-3.7934,-3.7947,-3.7992,-3.8058,-3.8065,-3.8003,-3.7998,-3.8115,-3.8128,-3.8142,-3.8293,-3.8176,-3.8184,-3.8189,-3.8521,-3.8526,-3.8531,0,0,0,0,0,0,-3.7767,-3.7789,-3.7971,-3.7887,-3.791,-3.7942,-3.7993,-3.7997,-3.8029,-3.8069,-3.8075,-3.803,-3.8112,-3.813,-3.8236,-3.8296,-3.8188,-3.8195,-3.8516,-3.8523,-3.8528,-3.8595,0,0,0,0,0,0,-3.776,-3.7787,-3.7834,-3.7889,-3.7914,-3.8062,-3.7997,-3.8002,-3.8043,-3.8038,-3.8097,-3.8103,-3.8111,-3.8224,-3.8244,-3.8306,-3.8202,-3.8511,-3.8519,-3.8526,-3.8588,-3.8603,-3.8616,0,0,0,0,0,-3.7751,-3.7848,-3.7836,-3.7859,-3.7973,-3.8066,-3.8081,-3.8088,-3.8048,-3.8096,-3.8122,-3.8101,-3.8286,-3.8235,-3.8257,-3.8323,-3.8507,-3.8517,-3.8526,-3.8581,-3.86,-3.8616,0,0,0,0,0,0,-3.78,-3.7855,-3.7843,-3.796,-3.8009,-3.806,-3.812,-3.8107,-3.8168,-3.816,-3.8167,-3.818,-3.8289,-3.8316,-3.8258,-3.8447,-3.8391,-3.8405,-3.8426,-3.8443,-3.8457,-3.8449,-3.8208,0,0,0,0,0,-3.7824,-3.7894,-3.7939,-3.8038,-3.8063,-3.8088,-3.8128,-3.8129,-3.818,-3.82,-3.8234,-3.8285,-3.8355,-3.84,-3.8467,-3.8591,-3.8605,-3.8647,-3.8661,-3.8673,-3.8685,-3.8755,-3.8775,-3.8561,-3.8561,-3.8561,0,0,-3.7875,-3.7914,-3.7958,-3.8049,-3.8086,-3.816,-3.8105,-3.8184,-3.8239,-3.8213,-3.8315,-3.8341,-3.8398,-3.8515,-3.8567,-3.8541,-3.8747,-3.8685,-3.8693,-3.87,-3.8767,-3.8787,-3.8805,-3.8568,-3.8567,-3.8565,0,0,-3.8006,-3.8042,-3.8129,-3.8168,-3.8226,-3.8242,-3.8263,-3.8317,-3.8334,-3.8436,-3.8418,-3.8484,-3.8603,-3.8645,-3.8682,-3.883,-3.8814,-3.8852,-3.8926,-3.8994,-3.901,-3.9025,-3.908,-3.9099,-3.8864,-3.8864,-3.8864,0,-3.8062,-3.8171,-3.8176,-3.8257,-3.8298,-3.8278,-3.8367,-3.8405,-3.8482,-3.8511,-3.848,-3.8631,-3.8667,-3.8794,-3.883,-3.886,-3.8886,-3.8845,-3.9007,-3.9023,-3.9037,-3.9089,-3.9109,-3.8869,-3.8868,-3.8868,-3.8867,0,-3.8238,-3.8314,-3.8378,-3.8453,-3.8501,-3.8586,-3.8605,-3.8653,-3.8651,-3.8671,-3.8776,-3.882,-3.8895,-3.8925,-3.8923,-3.9052,-3.9034,-3.9005,-3.8949,-3.9061,-3.911,-3.913,-3.8875,-3.8873,-3.8872,-3.8871,0,0,-3.8403,-3.8479,-3.8503,-3.8537,-3.86,-3.866,-3.8744,-3.8818,-3.886,-3.8914,-3.8986,-3.9089,-3.9063,-3.9105,-3.9108,-3.9167,-3.9284,-3.9131,-3.9133,-3.9159,-3.9431,-3.9453,-3.9476,-3.9273,-3.9277,-3.928,-3.9426,0,-3.8539,-3.8688,-3.8695,-3.8831,-3.8902,-3.8884,-3.8958,-3.9005,-3.9026,-3.9091,-3.9114,-3.9187,-3.9146,-3.9172,-3.923,-3.9257,-3.9339,-3.9247,-3.9342,-3.9345,-3.9329,-3.9501,-3.9525,-3.9661,-3.9445,-3.9449,-3.9451,0,-3.8719,-3.8779,-3.8921,-3.8975,-3.9005,-3.9072,-3.9141,-3.9202,-3.9256,-3.9267,-3.9315,-3.931,-3.9398,-3.9338,-3.9461,-3.9398,-3.9437,-3.9457,-3.9462,-3.9472,-3.9405,-3.9517,-3.9704,-3.9725,-3.9481,-3.9478,-3.9476,0,-3.8826,-3.8942,-3.9043,-3.9073,-3.9138,-3.9185,-3.9215,-3.9265,-3.931,-3.937,-3.9399,-3.9469,-3.9508,-3.9563,-3.9578,-3.9533,-3.9701,-3.9642,-3.9714,-3.9714,-3.975,-3.9748,-3.9948,-3.9774,-3.9774,-3.9773,-3.9773,0,-3.8979,-3.9067,-3.9092,-3.9154,-3.9253,-3.9261,-3.9359,-3.9386,-3.9431,-3.9499,-3.9488,-3.9552,-3.9566,-3.9634,-3.9645,-3.9746,-3.9763,-3.9776,-3.9778,-3.9778,-3.9776,-3.9804,-3.9796,-3.9779,-3.9778,-3.9776,-3.9776,0,-3.9116,-3.9136,-3.9244,-3.9298,-3.9313,-3.9384,-3.943,-3.949,-3.951,-3.9596,-3.9617,-3.9649,-3.9728,-3.9747,-3.9841,-3.9849,-3.9969,-3.9961,-3.9951,-3.9951,-4.0022,-4.0016,-4.0248,-4.0279,-4.0083,-4.0085,-4.0087,0,-3.9212,-3.928,-3.934,-3.9385,-3.9417,-3.9488,-3.9534,-3.9545,-3.9593,-3.966,-3.9713,-3.9791,-3.9853,-3.998,-4.0012,-4.0085,-4.008,-4.0156,-4.0091,-4.0089,-4.0083,-4.0079,-4.0087,-4.0169,-4.0171,-4.0173,-4.0174,0,-3.9382,-3.9389,-3.9454,-3.9524,-3.9579,-3.9634,-3.9688,-3.9725,-3.9744,-3.9799,-3.9879,-3.9928,-4.0024,-4.0102,-4.0175,-4.0206,-4.0195,-4.0195,-4.0215,-4.0216,-4.0208,-4.0215,-3.9986,-4.0189,-4.0188,-4.0187,-4.0186,-4.0185,-3.9503,-3.9563,-3.9615,-3.9689,-3.973,-3.9781,-3.984,-3.9868,-3.9935,-4.0014,-4.0017,-4.0105,-4.0159,-4.0256,-4.0292,-4.0362,-4.0339,-4.0368,-4.0376,-4.0384,-4.0391,-4.0196,-4.0375,-4.0375,-4.0374,-4.0374,-4.0373,0,-3.9673,-3.9706,-3.9774,-3.9849,-3.9908,-3.9891,-3.9949,-4.0,-4.0077,-4.0128,-4.019,-4.0284,-4.036,-4.0398,-4.0473,-4.0522,-4.0519,-4.0542,-4.0539,-4.0547,-4.0406,-4.0381,-4.0543,-4.0543,-4.0543,-4.0543,-4.0543,-4.0543,-3.9769,-3.987,-3.9883,-4.0005,-4.0038,-4.0124,-4.0159,-4.0206,-4.0247,-4.0352,-4.0415,-4.0439,-4.0486,-4.0564,-4.0634,-4.0643,-4.0672,-4.0699,-4.0705,-4.0574,-4.0556,-4.054,-4.0517,-4.0704,-4.0705,-4.084,-4.0841,-4.0842]}]]